Theta_e
331 329 329 324 313 312 303 304 311 310 311 318 319 318 317 318 315 310 335 339 340 340 344 345 347 348 348 346 345 345 346 345 342 342 342 342 342 343 340 339 341 340 341 338 336 339 337 335 334
329 326 329 321 311 305 303 308 307 312 318 322 321 320 317 314 325 329 333 339 341 341 344 345 344 346 346 345 345 344 344 344 342 341 339 338 339 341 339 337 340 339 338 335 335 335 339 336 334
326 324 321 315 311 305 304 309 312 315 321 318 318 323 319 317 327 331 338 341 342 342 345 345 344 346 345 344 344 344 344 342 343 341 339 337 337 337 337 336 338 339 338 336 334 336 337 335 334
322 324 319 310 305 306 308 311 315 317 320 318 320 315 324 330 329 335 340 342 341 343 346 343 345 347 345 345 343 343 342 341 344 342 339 337 337 336 338 335 335 337 337 335 334 335 335 334 333
322 321 312 306 305 307 309 313 316 313 314 317 319 315 319 330 334 337 341 341 340 342 345 345 344 345 345 344 342 342 342 339 339 342 341 338 336 337 335 336 335 335 336 336 333 335 335 334 332
310 314 307 304 306 309 312 315 315 313 313 316 317 316 319 332 333 337 341 340 341 342 344 345 338 340 342 343 343 342 342 339 337 341 341 340 337 335 335 335 333 333 333 335 332 334 334 333 332
308 305 302 306 307 307 311 315 313 313 313 313 319 311 321 328 335 339 340 341 341 342 344 344 345 341 335 338 339 340 340 339 338 338 341 339 338 337 336 336 335 333 333 333 333 334 333 332 330
315 308 302 307 306 307 311 313 314 315 314 319 322 311 314 327 336 338 339 339 339 341 342 343 345 344 342 341 333 334 336 336 336 335 336 333 334 334 334 332 333 335 333 333 333 333 332 331 329
314 301 297 301 306 308 313 310 313 315 315 317 320 318 325 331 336 334 333 335 336 337 339 340 343 343 342 342 335 331 331 331 331 330 327 330 335 335 334 330 332 332 334 333 333 332 331 329 327
308 298 298 305 310 311 312 310 312 313 314 314 318 325 328 331 331 329 329 329 330 333 335 337 338 341 341 340 340 339 337 334 334 335 334 335 336 335 332 326 327 331 331 333 333 332 331 326 326
308 297 301 304 312 312 311 311 314 311 311 315 316 320 326 328 331 331 331 332 332 334 334 334 336 337 340 339 339 339 338 336 334 335 335 334 333 333 332 333 332 333 326 331 331 330 329 328 326
301 306 303 306 311 310 309 311 311 312 312 314 317 318 325 326 328 330 330 331 332 334 335 335 335 335 336 339 338 338 337 337 334 333 334 333 333 333 332 331 332 331 332 331 330 328 328 328 326
302 303 307 308 309 309 308 308 308 309 316 315 317 316 320 325 327 329 331 332 333 333 334 336 339 337 335 336 336 336 336 336 336 334 332 332 331 331 331 331 331 328 330 330 329 328 327 327 326
300 304 305 306 307 308 305 306 306 309 313 313 313 317 320 322 325 328 329 329 330 331 333 336 337 338 338 335 335 334 334 334 336 335 333 332 330 330 330 329 330 330 330 329 328 326 325 324 324
302 297 300 302 305 304 307 301 302 308 312 311 312 315 318 320 324 325 328 329 331 332 333 333 335 337 337 336 335 336 334 334 333 333 335 333 331 330 329 328 327 328 328 328 328 327 326 324 323
297 296 290 296 302 303 303 291 299 306 307 306 309 314 315 317 319 323 325 327 330 331 331 333 332 334 336 337 336 334 334 334 335 333 333 335 333 331 330 328 327 327 327 327 326 325 325 324 323
296 288 289 290 300 299 300 294 299 304 306 305 306 309 313 314 314 316 317 320 324 327 327 329 332 332 334 336 336 335 333 332 333 333 332 331 334 333 331 330 330 330 328 327 326 325 325 324 323
287 288 289 288 293 298 297 296 300 304 304 305 306 307 308 309 310 313 315 316 317 319 321 325 329 331 332 334 335 335 332 332 332 331 330 330 332 334 332 332 331 331 329 328 327 326 326 325 324
289 290 288 292 295 296 295 295 298 302 303 303 304 305 307 308 312 313 313 313 314 317 317 322 325 328 330 329 330 330 327 328 329 330 330 329 329 334 333 332 332 331 329 328 328 327 325 324 323
291 288 289 292 296 296 294 294 297 300 301 303 303 305 306 307 309 310 311 312 313 314 316 317 321 324 328 329 329 329 330 331 331 330 329 329 329 332 333 332 331 331 327 328 328 327 322 321 323
290 288 288 288 293 295 293 290 293 297 300 301 303 304 305 305 305 307 308 310 313 313 315 315 319 323 326 327 328 328 328 329 328 330 331 331 330 332 332 332 332 331 328 324 326 324 322 320 322
286 293 291 290 289 283 292 282 291 294 293 297 300 301 303 304 305 306 307 309 312 314 314 314 316 318 321 325 325 324 322 321 324 327 330 330 331 331 331 330 330 330 329 326 326 327 324 322 320
289 294 292 290 288 287 287 285 288 293 291 293 296 300 302 305 306 307 308 310 311 311 312 313 313 313 314 318 322 322 323 323 325 325 326 327 329 329 329 330 329 329 329 328 326 325 324 323 321
296 293 293 292 289 281 286 285 286 290 292 294 298 299 301 303 305 306 308 308 308 310 311 313 313 312 314 316 320 321 321 322 322 323 323 324 325 326 327 327 328 328 328 328 329 327 326 324 322
294 289 281 279 280 279 287 285 287 292 293 294 295 298 300 302 304 305 304 305 307 306 307 310 311 309 313 320 319 320 321 322 322 322 323 322 323 323 324 325 325 325 326 327 328 327 327 325 322
290 289 282 275 277 280 286 281 286 295 297 298 298 299 301 300 302 303 305 306 305 304 305 306 306 305 306 309 312 321 323 322 323 323 323 323 323 324 326 325 325 325 325 325 326 326 326 326 323
290 286 291 283 280 280 284 287 292 295 295 297 298 299 300 301 302 302 301 302 303 303 302 303 303 303 303 303 305 306 307 309 314 317 321 323 324 324 324 325 324 324 324 324 324 325 324 325 325
292 294 284 284 276 275 281 283 286 291 293 295 296 298 299 300 299 299 300 300 300 300 300 301 301 300 301 302 303 303 303 304 305 306 306 307 308 310 312 317 320 322 322 322 321 322 322 321 321
288 287 288 288 285 279 278 282 293 292 294 295 297 298 300 299 298 299 299 299 298 299 299 299 300 300 300 301 301 302 302 302 302 302 302 303 304 305 306 307 309 311 315 318 319 319 320 320 320
293 290 289 284 282 284 284 284 294 295 296 297 298 298 299 298 298 298 298 298 298 298 298 298 298 298 298 298 299 299 299 300 300 300 300 301 301 302 302 303 304 306 308 311 313 316 317 317 317
Wind_Speed
19 10 2 4 3 1 5 4 1 5 3 2 2 3 3 4 5 4 3 6 6 11 9 10 10 11 12 11 11 9 11 13 11 10 11 12 11 13 14 13 12 13 13 13 11 11 13 12 11
14 6 2 0 1 2 6 4 5 3 4 6 4 2 2 3 2 6 9 5 9 10 9 10 9 11 12 10 9 8 8 11 12 11 9 9 11 12 12 13 10 12 12 11 10 9 13 12 11
8 4 3 1 0 3 5 3 6 5 7 1 2 2 1 3 3 8 4 10 11 9 8 9 10 12 12 11 9 8 6 6 12 12 8 10 9 10 10 11 8 10 12 11 9 9 11 10 10
6 1 3 3 6 4 3 4 6 9 5 2 1 2 2 3 2 5 10 11 11 10 9 11 9 11 12 11 9 8 6 2 11 13 9 9 9 9 8 10 10 7 9 9 9 7 9 8 8
3 1 2 5 5 3 2 2 6 7 4 4 4 3 2 3 2 6 12 12 11 10 9 11 8 10 10 9 9 8 7 3 3 8 12 9 7 7 9 8 9 8 8 8 8 6 7 7 6
2 2 4 9 7 3 3 6 6 5 3 4 4 3 3 4 5 7 10 11 10 10 9 10 9 9 9 9 8 6 7 5 0 7 11 12 8 6 6 8 8 9 7 8 6 6 5 5 4
1 2 2 3 9 6 5 6 6 5 5 5 2 3 4 6 4 8 10 9 9 10 9 9 10 10 8 8 7 7 5 6 5 2 11 11 11 9 6 5 6 8 7 8 6 6 4 4 3
0 3 5 5 9 9 5 5 2 6 4 4 1 4 4 7 9 9 8 8 8 8 8 8 9 10 10 10 8 8 6 4 2 4 7 7 7 7 8 4 6 6 8 6 6 5 5 4 3
1 5 8 7 8 5 3 6 2 1 3 3 4 0 6 9 11 9 8 7 7 6 7 8 9 9 9 8 8 7 7 7 4 3 4 9 7 8 8 5 3 8 5 6 6 6 5 3 2
5 5 9 4 6 5 5 4 3 4 6 5 6 5 6 11 12 12 11 10 10 10 9 8 9 9 9 7 8 9 8 7 8 8 7 5 7 7 6 5 7 6 5 5 7 8 6 6 6
4 6 4 5 6 5 6 5 2 5 6 6 7 7 9 10 12 13 12 11 13 11 9 11 10 10 10 8 6 5 5 5 6 10 8 7 5 4 5 4 6 6 7 7 8 8 7 8 6
5 7 3 2 4 4 5 2 4 6 1 1 4 3 8 11 13 14 13 13 11 12 13 12 12 11 11 7 7 7 6 6 6 8 10 8 6 7 7 5 5 5 5 7 7 5 7 8 8
8 4 6 2 4 2 1 6 5 8 8 5 1 3 6 9 11 11 11 11 12 13 13 13 14 12 11 11 7 8 8 8 8 8 9 9 8 8 8 7 7 7 7 7 7 7 7 8 9
2 8 2 2 7 4 6 9 5 9 13 12 8 8 7 8 10 10 11 12 13 13 13 13 14 14 12 11 11 8 8 9 9 9 10 12 9 8 8 8 8 8 8 8 8 8 7 7 8
1 3 7 9 4 5 5 15 19 17 7 11 14 14 11 10 8 12 10 12 12 11 11 13 13 14 14 14 12 11 8 10 9 9 12 13 12 12 11 9 8 9 8 9 8 8 8 8 8
4 3 5 5 10 6 9 16 6 16 20 21 17 14 14 13 12 11 10 10 10 11 11 10 10 13 15 14 11 10 11 11 11 11 10 15 15 14 11 9 9 9 8 8 8 8 8 9 9
6 6 11 5 12 7 17 11 9 6 14 19 19 18 14 13 13 14 14 13 12 11 10 12 12 14 15 14 11 12 13 11 11 11 11 14 15 15 13 11 10 11 9 9 8 9 9 9 9
9 8 6 7 6 12 13 21 7 3 12 15 16 15 13 15 18 16 13 10 11 11 10 10 10 12 12 10 10 10 9 10 9 10 11 13 12 16 14 12 13 11 10 10 10 12 10 10 10
4 12 8 5 2 7 17 21 19 15 13 14 15 13 13 16 16 14 13 13 13 13 12 11 10 11 9 9 9 10 10 10 9 9 12 13 13 16 16 12 13 12 12 13 13 12 13 10 9
10 8 9 3 2 5 8 20 20 18 21 21 21 18 19 18 18 17 18 15 13 13 12 12 12 10 10 9 9 8 7 9 10 10 11 13 16 17 15 15 14 14 11 14 14 13 10 9 8
19 20 12 6 1 5 8 20 19 17 20 21 19 20 20 20 20 18 18 13 12 12 11 10 11 12 12 12 9 8 7 7 8 9 11 13 16 16 17 17 14 13 11 11 13 13 15 11 9
16 12 13 9 4 8 1 15 17 9 10 11 15 16 18 18 17 17 15 13 11 8 6 8 8 10 10 11 11 14 11 11 10 10 10 10 14 15 15 15 15 14 11 11 12 10 12 11 13
7 8 14 15 12 10 17 10 14 8 17 14 11 12 13 14 12 13 11 10 7 5 6 7 8 9 9 10 13 11 13 11 10 9 10 10 10 12 14 15 16 15 11 14 14 14 13 12 11
9 9 6 5 7 10 20 17 23 19 17 14 7 10 11 12 11 10 6 6 6 5 6 6 8 8 7 9 11 14 14 12 9 9 8 8 8 9 13 14 13 14 13 14 14 15 16 13 13
16 14 6 6 8 13 6 14 25 6 7 12 9 8 11 9 8 8 8 7 5 3 2 2 1 1 3 5 7 10 11 11 12 11 8 9 8 8 10 12 12 12 14 14 14 14 14 14 12
23 19 7 10 10 9 9 16 13 8 17 17 21 14 14 7 7 8 7 6 5 5 5 5 5 5 5 5 4 1 5 6 7 9 8 7 7 8 10 10 11 13 14 14 14 11 12 13 12
19 17 18 10 3 4 11 15 15 16 10 8 12 13 14 9 6 8 6 5 6 5 4 4 5 5 6 6 5 5 5 4 2 5 6 6 8 8 9 10 12 13 13 14 15 11 13 13 13
16 15 13 10 10 13 13 17 16 3 9 13 15 14 10 6 6 7 7 7 5 5 6 6 6 6 6 6 5 5 5 5 5 4 5 5 6 7 8 9 10 11 12 13 14 11 12 13 11
11 13 7 7 11 11 13 15 18 17 16 15 12 15 14 9 9 9 8 8 7 6 6 5 5 5 5 5 5 5 6 6 6 5 6 7 7 7 7 8 9 10 11 11 12 15 15 15 15
24 21 21 11 16 12 17 17 4 7 13 14 13 7 6 8 10 10 10 10 8 7 5 5 5 5 5 5 5 6 6 6 5 6 7 7 7 7 8 8 8 9 10 11 12 11 12 15 15
Wind_Direction
326 334 283 228 222 121 98 128 11 165 194 78 89 259 342 3 342 26 115 145 156 147 148 167 165 149 131 137 135 134 137 133 127 130 130 129 124 127 128 118 118 121 118 110 106 117 117 104 99
325 322 243 272 219 153 91 124 169 122 99 116 133 169 206 71 62 101 142 159 161 148 152 155 147 138 129 134 135 134 136 137 138 134 137 132 132 143 133 124 134 134 123 122 113 112 126 117 111
320 332 295 27 121 102 100 141 124 129 141 147 165 309 22 73 111 145 99 149 155 152 153 137 149 136 133 137 139 140 147 170 148 135 137 139 136 141 134 134 134 138 131 127 114 114 116 117 115
339 290 150 244 135 99 76 120 131 146 186 223 279 160 160 29 108 153 147 153 158 151 155 135 142 136 138 136 142 149 149 132 146 133 140 137 144 152 147 148 149 149 136 137 128 127 119 120 121
3 274 202 152 140 133 179 147 163 157 141 157 192 103 113 131 109 143 152 159 158 157 152 154 144 134 135 141 145 151 150 117 106 149 142 148 157 159 157 148 157 158 160 150 142 134 130 125 121
334 300 218 191 169 169 172 167 177 178 146 138 195 159 102 115 165 158 158 162 156 162 161 154 149 141 140 145 153 158 149 147 90 134 156 152 152 153 165 171 171 175 172 160 166 161 154 141 129
335 274 235 218 174 182 167 169 205 179 162 166 122 154 104 177 148 155 162 159 164 165 171 173 171 160 148 152 156 164 165 171 162 264 165 163 160 162 175 170 184 189 180 185 186 181 185 172 152
304 251 192 201 192 189 153 185 250 208 154 110 194 164 142 148 149 153 160 164 172 174 173 192 182 181 177 170 163 165 172 203 155 110 155 162 166 166 167 170 204 199 198 196 198 207 214 213 195
251 221 218 197 196 168 160 208 153 343 183 185 170 208 93 133 150 152 158 175 178 188 194 197 199 193 191 188 168 172 175 175 170 142 114 159 181 185 168 182 178 215 191 195 204 224 229 232 219
226 227 217 196 186 182 161 216 193 218 189 198 186 146 132 155 168 173 182 188 195 196 200 200 203 211 203 195 185 194 182 194 198 195 188 212 203 193 203 190 200 216 210 214 217 224 220 221 238
182 229 215 201 183 171 158 186 184 220 212 215 213 166 158 173 187 188 197 201 201 201 200 206 204 204 208 208 205 201 199 198 202 208 202 194 205 198 216 213 204 216 204 224 211 214 230 235 247
219 236 216 156 185 174 183 154 213 227 216 331 155 135 167 191 193 199 205 204 203 204 205 207 206 204 209 205 206 205 208 206 210 209 208 207 208 202 204 212 234 237 239 241 236 239 244 245 248
226 224 221 225 168 219 158 226 249 244 235 208 261 208 202 198 210 214 218 218 213 213 213 211 205 200 205 205 208 215 214 208 214 217 215 216 218 218 217 216 216 207 224 240 245 248 248 247 251
336 225 178 251 242 246 243 244 213 229 237 237 226 225 228 226 213 214 214 220 225 226 223 215 212 210 201 210 208 207 218 225 221 216 215 216 228 228 223 223 226 229 229 230 232 237 243 250 259
7 263 239 233 205 233 206 251 236 239 199 223 229 229 226 232 221 231 228 225 227 229 229 222 217 213 213 207 209 216 207 218 218 227 224 221 218 221 223 228 231 232 229 237 240 243 243 247 246
206 237 233 204 201 227 199 251 237 233 227 235 235 232 226 226 238 244 249 243 237 239 234 226 218 218 216 215 210 219 219 217 223 220 227 225 222 222 224 230 232 232 228 228 229 234 244 251 257
200 220 218 275 206 196 202 254 236 209 213 232 234 234 231 243 243 248 249 253 254 245 243 235 220 220 219 220 220 221 223 223 227 227 225 228 226 223 223 226 232 231 233 233 234 239 242 250 250
198 221 212 219 192 227 220 246 228 216 228 232 241 241 242 246 251 251 245 240 248 246 244 235 222 223 219 219 220 225 226 225 226 229 224 219 230 226 224 228 229 227 230 234 232 239 240 246 260
277 225 223 190 200 231 241 253 254 238 235 242 243 242 241 242 246 250 251 260 251 239 240 229 218 218 207 207 210 223 227 227 228 229 225 219 221 230 226 230 232 226 231 233 233 237 241 247 245
224 237 232 243 226 229 272 271 267 251 237 240 247 242 241 245 247 248 254 253 247 245 238 232 226 218 207 208 208 221 217 225 227 227 227 225 227 231 230 228 230 226 230 237 237 234 236 238 232
224 232 234 259 126 243 291 274 256 253 242 233 240 248 247 244 249 251 252 245 248 247 245 239 227 216 214 216 217 225 234 242 234 229 232 227 228 232 232 233 236 234 225 232 233 233 228 241 225
222 215 227 220 241 255 295 279 263 249 238 223 229 233 239 241 241 249 252 252 243 251 238 239 234 228 226 217 223 225 227 235 235 234 230 231 225 232 233 239 241 240 238 228 235 231 226 225 240
247 170 201 215 231 273 242 263 263 251 259 245 228 220 230 241 240 244 246 251 243 235 241 247 247 243 237 226 224 226 232 243 248 245 242 242 237 227 231 230 232 234 230 236 231 235 232 233 235
139 117 136 198 220 239 234 222 268 246 251 243 211 217 228 225 239 248 243 234 227 221 231 232 239 247 247 236 227 230 235 238 246 244 245 244 238 232 232 235 236 239 239 237 238 236 237 230 234
188 164 166 203 204 241 221 209 248 268 336 272 222 246 258 256 233 211 223 216 208 193 179 151 193 204 306 254 242 238 242 245 247 250 249 248 246 243 245 238 239 241 244 245 245 244 239 236 237
197 186 184 214 212 250 160 231 244 239 250 233 252 265 262 221 242 250 250 229 183 151 134 126 108 93 60 59 54 350 250 248 249 252 257 258 253 255 255 255 247 250 249 249 247 246 243 241 235
192 215 213 267 84 272 215 251 281 258 234 234 233 238 230 228 243 226 181 163 149 129 96 90 96 80 56 47 53 55 48 37 348 308 289 276 278 276 277 269 265 262 259 258 256 252 249 247 245
192 189 197 216 214 227 238 243 254 165 238 239 240 239 234 217 192 176 157 143 126 114 103 87 76 75 71 65 55 52 45 32 16 7 1 338 320 316 310 301 290 279 273 266 261 257 252 251 247
192 199 215 219 226 228 253 247 244 251 244 243 233 235 236 207 190 176 154 137 130 125 112 105 92 74 61 51 45 47 42 33 35 28 11 357 338 335 321 313 306 300 294 283 274 265 261 255 253
204 201 193 201 201 233 252 253 167 242 250 247 230 219 231 203 176 167 157 153 155 143 129 113 89 71 46 38 32 31 23 19 24 17 4 352 345 343 339 330 317 309 304 300 290 286 271 266 262